Weather History for KNHK - January, 2014

Change the Weather History Date:

Wednesday, January 29, 2014

  Actual Average Record
Temperature  
Mean Temperature 14 °F -  
Max Temperature 21 °F 39 °F 71 °F (2002)
Min Temperature 7 °F 21 °F 4 °F (1977)
Degree Days  
Heating Degree Days 51    
Moisture  
Dew Point 3 °F    
Average Humidity 65    
Maximum Humidity 80    
Minimum Humidity 30    
Precipitation  
Precipitation 0.03 in - - ()
Snow  
Snow 0.00 in - - ()
Snow Depth 3.00 in    
Sea Level Pressure  
Sea Level Pressure 30.27 in    
Wind  
Wind Speed 13 mph (NW)    
Max Wind Speed 18 mph    
Max Gust Speed -    
Visibility 7 miles    
Events Snow    
Averages and records for this station are not official NWS values.
T = Trace of Precipitation, MM = Missing Value Source: NWS Daily Summary

Daily Weather History Graph

Daily Weather History Graph

Search for Another Location

Airport or City:

Trip Planner

Search our weather history database for the weather conditions in past years. The results will help you decide how hot, cold, wet, or windy it might be!

Date:

Astronomy

Jan. 29, 2014 Rise Set
Actual Time 7:13 AM EST 5:24 PM EST
Civil Twilight 6:45 AM EST 5:52 PM EST
Nautical Twilight 6:13 AM EST 6:24 PM EST
Astronomical Twilight 5:42 AM EST 6:55 PM EST
Moon 5:47 AM EST (1/29) 4:21 PM EST (1/29)
Length of Visible Light 11h 07m
Length of Day
10h 11m
Waning Crescent, 2% of the Moon is Illuminated
Jan 29
Waning Crescent
Jan 30
New
Feb 6
First Quarter
Feb 14
Full
Feb 22
Last Quarter

Hourly Weather History & Observations

Time (EST) Temp. Windchill Dew Point Humidity Pressure Visibility Wind Dir Wind Speed Gust Speed Precip Events Conditions
12:08 AM 14.0 °F -0.2 °F 9.0 °F 80% 30.25 in 1.5 mi NNW 12.7 mph - 0.01 in Snow Light Snow
12:20 AM 14.0 °F -0.8 °F 9.0 °F 80% 30.24 in 2.0 mi NNW 13.8 mph - 0.02 in Snow Light Snow
12:28 AM 14.0 °F -0.2 °F 9.0 °F 80% 30.24 in 1.5 mi NNW 12.7 mph - 0.02 in Snow Light Snow
12:47 AM 14.0 °F -0.8 °F 8.6 °F 79% 30.25 in 1.2 mi NW 13.8 mph - 0.02 in Snow Light Snow
12:52 AM 15.1 °F 0.5 °F 10.0 °F 80% 30.25 in 1.2 mi NW 13.8 mph - 0.02 in Snow Light Snow
1:42 AM 14.0 °F -2.5 °F 9.0 °F 80% 30.23 in 1.8 mi NNW 17.3 mph - 0.01 in Snow Light Snow
1:52 AM 14.0 °F -2.0 °F 9.0 °F 80% 30.22 in 1.5 mi NNW 16.1 mph - 0.01 in Snow Light Snow
2:33 AM 14.0 °F -2.5 °F 8.1 °F 77% 30.22 in 2.0 mi NW 17.3 mph - 0.00 in Snow Light Snow
2:52 AM 14.0 °F -3.0 °F 8.1 °F 77% 30.22 in 2.0 mi NNW 18.4 mph - 0.00 in Snow Light Snow
3:09 AM 14.0 °F -2.5 °F 8.1 °F 77% 30.21 in 1.8 mi NW 17.3 mph - 0.00 in Snow Light Snow
3:18 AM 14.0 °F -2.5 °F 8.1 °F 77% 30.20 in 2.0 mi NNW 17.3 mph - 0.00 in Snow Light Snow
3:52 AM 14.0 °F -0.2 °F 8.1 °F 77% 30.22 in 2.5 mi NNW 12.7 mph - 0.00 in Snow Light Snow
4:02 AM 14.0 °F -0.2 °F 8.1 °F 77% 30.22 in 3.0 mi NNW 12.7 mph - 0.00 in Snow Light Snow
4:52 AM 14.0 °F -2.0 °F 7.0 °F 74% 30.22 in 4.0 mi NNW 16.1 mph - 0.00 in Snow Light Snow
4:58 AM 12.9 °F -2.8 °F 7.0 °F 77% 30.22 in 3.0 mi NNW 15.0 mph - 0.00 in Snow Light Snow
5:37 AM 14.0 °F -1.4 °F 7.0 °F 74% 30.23 in 10.0 mi NNW 15.0 mph - 0.00 in   Overcast
5:52 AM 14.0 °F -2.0 °F 6.1 °F 71% 30.23 in 10.0 mi NNW 16.1 mph - 0.00 in   Overcast
6:52 AM 12.9 °F -2.8 °F 5.0 °F 71% 30.25 in 10.0 mi NNW 15.0 mph - N/A   Overcast
7:52 AM 12.9 °F -3.4 °F 1.9 °F 62% 30.27 in 10.0 mi NNW 16.1 mph - N/A   Mostly Cloudy
8:52 AM 14.0 °F -2.5 °F 1.0 °F 56% 30.29 in 10.0 mi NNW 17.3 mph - N/A   Mostly Cloudy
9:52 AM 12.9 °F -3.4 °F -4.0 °F 47% 30.31 in 10.0 mi NNW 16.1 mph - N/A   Mostly Cloudy
10:52 AM 17.1 °F 3.6 °F -2.9 °F 41% 30.33 in 10.0 mi NW 12.7 mph - N/A   Partly Cloudy
11:52 AM 17.1 °F 3.6 °F -2.9 °F 41% 30.32 in 10.0 mi NNW 12.7 mph - N/A   Partly Cloudy
12:52 PM 18.0 °F 5.4 °F -4.0 °F 38% 30.29 in 10.0 mi NNW 11.5 mph - N/A   Partly Cloudy
1:52 PM 19.9 °F 7.3 °F -2.9 °F 37% 30.28 in 10.0 mi NNW 12.7 mph - N/A   Mostly Cloudy
2:52 PM 21.9 °F 10.4 °F -0.9 °F 37% 30.28 in 10.0 mi NNW 11.5 mph - N/A   Mostly Cloudy
3:52 PM 21.9 °F 11.7 °F -5.1 °F 30% 30.27 in 10.0 mi NW 9.2 mph - N/A   Mostly Cloudy
4:52 PM 19.9 °F 11.1 °F -2.9 °F 37% 30.29 in 10.0 mi West 6.9 mph - N/A   Mostly Cloudy
5:52 PM 19.0 °F 13.9 °F -2.9 °F 38% 30.30 in 10.0 mi SSW 3.5 mph - N/A   Mostly Cloudy
6:52 PM 10.0 °F 3.6 °F -0.9 °F 61% 30.32 in 10.0 mi SSW 3.5 mph - N/A   Mostly Cloudy
7:52 PM 8.1 °F - -0.0 °F 70% 30.34 in 10.0 mi Calm Calm - N/A   Mostly Cloudy
8:52 PM 9.0 °F - -0.0 °F 67% 30.34 in 10.0 mi Calm Calm - N/A   Mostly Cloudy
9:52 PM 8.1 °F - -0.0 °F 70% 30.35 in 10.0 mi Calm Calm - N/A   Mostly Cloudy
10:52 PM 7.0 °F - -0.9 °F 70% 30.37 in 10.0 mi Calm Calm - N/A   Scattered Clouds
11:52 PM 9.0 °F - 1.9 °F 73% 30.39 in 10.0 mi Calm Calm - N/A   Clear